Weather History for KPHD - July, 2013

Change the Weather History Date:

Monday, July 1, 2013

  Actual Average Record
Temperature  
Mean Temperature 72 °F 72 °F  
Max Temperature 79 °F 83 °F 96 °F (1991)
Min Temperature 65 °F 61 °F 42 °F (1988)
Degree Days  
Heating Degree Days 0 0  
Month to date heating degree days 0 0  
Since 1 June heating degree days 22 35  
Since 1 July heating degree days 0 0  
Cooling Degree Days 7 7  
Month to date cooling degree days 7 7  
Year to date cooling degree days 250 193  
Since 1 June cooling degree days 152 150  
Growing Degree Days 21 (Base 50)    
Moisture  
Dew Point 65 °F    
Average Humidity 79    
Maximum Humidity 93    
Minimum Humidity 64    
Precipitation  
Precipitation 0.21 in 0.10 in 2.08 in (1991)
Month to date precipitation 0.21 0.10  
Year to date precipitation 17.81 19.43  
Sea Level Pressure  
Sea Level Pressure 29.90 in    
Wind  
Wind Speed 2 mph (North)    
Max Wind Speed 14 mph    
Max Gust Speed 21 mph    
Visibility 9 miles    
Events Rain    
T = Trace of Precipitation, MM = Missing Value Source: NWS Daily Summary

Daily Weather History Graph

Daily Weather History Graph

Search for Another Location

Airport or City:

Trip Planner

Search our weather history database for the weather conditions in past years. The results will help you decide how hot, cold, wet, or windy it might be!

Date:

Astronomy

Jul. 01, 2013 Rise Set
Actual Time 5:59 AM EDT 8:59 PM EDT
Civil Twilight 5:26 AM EDT 9:32 PM EDT
Nautical Twilight 4:44 AM EDT 10:14 PM EDT
Astronomical Twilight 3:55 AM EDT 11:03 PM EDT
Moon 1:29 AM EDT (7/1) 3:13 PM EDT (7/1)
Length of Visible Light 16h 06m
Length of Day
15h 00m
Waning Crescent, 35% of the Moon is Illuminated
Jul 1
Waning Crescent
Jul 8
New
Jul 15
First Quarter
Jul 22
Full
Jul 29
Last Quarter

Hourly Weather History & Observations

Time (EDT) Temp. Dew Point Humidity Pressure Visibility Wind Dir Wind Speed Gust Speed Precip Events Conditions
12:53 AM 68.0 °F 64.0 °F 87% 29.85 in 10.0 mi Calm Calm - N/A   Scattered Clouds
1:53 AM 66.9 °F 64.0 °F 90% 29.85 in 10.0 mi Variable 3.5 mph - N/A   Overcast
2:53 AM 66.0 °F 63.0 °F 90% 29.84 in 10.0 mi Calm Calm - N/A   Partly Cloudy
3:53 AM 64.9 °F 63.0 °F 93% 29.84 in 10.0 mi Calm Calm - N/A   Partly Cloudy
4:53 AM 64.9 °F 63.0 °F 93% 29.85 in 10.0 mi Calm Calm - N/A   Scattered Clouds
5:53 AM 64.9 °F 63.0 °F 93% 29.86 in 10.0 mi WNW 3.5 mph - N/A   Clear
6:53 AM 64.9 °F 63.0 °F 93% 29.88 in 6.0 mi Calm Calm - N/A   Mostly Cloudy
7:53 AM 66.0 °F 63.0 °F 90% 29.89 in 9.0 mi Calm Calm - N/A   Overcast
8:53 AM 66.9 °F 64.0 °F 90% 29.90 in 8.0 mi Calm Calm - 0.02 in Rain Light Rain
9:03 AM 66.2 °F 64.4 °F 94% 29.91 in 5.0 mi Calm Calm - 0.00 in Rain Light Rain
9:37 AM 66.2 °F 64.4 °F 94% 29.90 in 7.0 mi Calm Calm - 0.01 in   Overcast
9:53 AM 66.9 °F 64.9 °F 93% 29.89 in 7.0 mi WNW 3.5 mph - 0.01 in   Mostly Cloudy
10:53 AM 69.1 °F 64.9 °F 87% 29.90 in 10.0 mi Calm Calm - N/A   Overcast
11:39 AM 71.6 °F 64.4 °F 78% 29.91 in 10.0 mi Calm Calm - N/A   Mostly Cloudy
11:50 AM 73.4 °F 66.2 °F 78% 29.91 in 10.0 mi Calm Calm - N/A   Mostly Cloudy
11:53 AM 73.9 °F 66.0 °F 76% 29.90 in 10.0 mi Calm Calm - N/A   Scattered Clouds
12:31 PM 73.4 °F 66.2 °F 78% 29.91 in 10.0 mi Calm Calm - N/A   Mostly Cloudy
12:53 PM 75.9 °F 66.0 °F 71% 29.90 in 10.0 mi Calm Calm - N/A   Scattered Clouds
1:53 PM 77.0 °F 64.0 °F 64% 29.90 in 10.0 mi Calm Calm - N/A   Scattered Clouds
2:53 PM 73.9 °F 66.0 °F 76% 29.90 in 10.0 mi Calm Calm - 0.05 in Rain Light Rain
3:53 PM 78.1 °F 68.0 °F 71% 29.90 in 10.0 mi North 9.2 mph - 0.00 in   Scattered Clouds
4:53 PM 70.0 °F 64.9 °F 84% 29.91 in 3.0 mi NNE 3.5 mph - 0.04 in Rain Rain
5:53 PM 71.1 °F 66.0 °F 84% 29.91 in 10.0 mi North 5.8 mph - 0.01 in   Overcast
6:53 PM 73.0 °F 66.0 °F 79% 29.90 in 10.0 mi NE 9.2 mph - N/A   Mostly Cloudy
7:53 PM 70.0 °F 64.0 °F 81% 29.93 in 10.0 mi Variable 3.5 mph - N/A   Mostly Cloudy
8:53 PM 70.0 °F 64.0 °F 81% 29.94 in 10.0 mi Calm Calm - N/A   Overcast
9:53 PM 69.1 °F 64.9 °F 87% 29.96 in 10.0 mi Calm Calm - N/A   Overcast
10:53 PM 69.1 °F 64.9 °F 87% 29.95 in 10.0 mi Calm Calm - N/A   Scattered Clouds
11:53 PM 68.0 °F 64.9 °F 90% 29.96 in 10.0 mi Calm Calm - 0.01 in Rain Light Rain